sat.trackr.live / text

‹ back to catalog

KOSAR

NORAD 61769 · 2024-199AL

PAYLOAD ACTIVE UNKNOWN

§ Identity

Operator
Country
IRAN
Launch date
2024-11-04
Launch site
VOSTO
Launch vehicle
Mass (kg)
RCS (m²)

External: N2YO · Heavens-Above · Gunter

§ Orbital elements

Epoch: 2026-09-22T21:14:23.158464Z

Period
92.29 min
Inclination
97.2750°
Eccentricity
0.0001174
Mean motion
15.60305517 rev/d
Perigee alt
386.0 km
Apogee alt
387.6 km
Semi-major
6,764.9 km
B*
4.1744e-4
RAAN
143.9853°
Arg perigee
284.5464°
Mean anomaly
75.5663°
Rev number
14,962

§ Raw data

KOSAR1 61769U 24199AL  26265.88499026  .00034089  00000+0  41744-3 0  99972 61769  97.2750 143.9853 0001174 284.5464  75.5663 15.60305517149627

JSON: /api/v1/satellites/61769 · /tle

For live sub-satellite position, see the globe view (requires WebGL).

§ Visibility from observer

Set your observer location to see the next 7 days of passes ≥ 10°. The values pass through the URL so the page stays shareable.

No JS? Fill the form by hand. The geolocation button needs JavaScript.

§ Radio — SatNOGS DB

ModeDescriptionDownlinkUplink
FSK Mode U - FSK9k6 - Transmitter 436.750 MHz
FSK Mode U - Transmitter 2 436.740 MHz
FM Mode X - Transmitter 8.200 GHz

3 transmitters · refreshed weekly from db.satnogs.org